Time,TemperatureF,DewpointF,PressureIn,WindDirection,WindDirectionDegrees,WindSpeedMPH,WindSpeedGustMPH,Humidity,HourlyPrecipIn,Conditions,Clouds,dailyrainin,SoftwareType,DateUTC
2013-01-06 00:00:00,35.7,25.1,30.17,SSW,202,0.0,0.0,65,0.00,,,0.00,Wunderground v.1.15,2013-01-06 05:00:00,
2013-01-06 00:01:00,35.7,25.1,30.17,SSW,202,0.0,0.0,65,0.00,,,0.00,Wunderground v.1.15,2013-01-06 05:01:00,
2013-01-06 00:04:00,35.7,24.3,30.16,SSW,202,0.0,0.0,63,0.00,,,0.00,Wunderground v.1.15,2013-01-06 05:04:00,
2013-01-06 00:05:00,35.7,24.3,30.16,SSW,202,0.0,0.0,63,0.00,,,0.00,Wunderground v.1.15,2013-01-06 05:05:00,
2013-01-06 00:09:00,35.8,24.0,30.15,SSW,202,0.0,1.0,63,0.00,,,0.00,weatherlink.com 1.10,2013-01-06 05:09:00,
2013-01-06 00:14:00,35.9,24.9,30.16,NNW,348,0.0,2.0,64,0.00,,,0.00,Wunderground v.1.15,2013-01-06 05:14:00,
2013-01-06 00:20:00,35.6,26.8,30.17,NNW,348,1.0,1.0,70,0.00,,,0.00,Wunderground v.1.15,2013-01-06 05:20:00,
2013-01-06 00:25:00,35.4,24.8,30.17,NNW,348,0.0,1.0,65,0.00,,,0.00,Wunderground v.1.15,2013-01-06 05:25:00,
2013-01-06 00:30:00,35.6,24.2,30.16,NNW,348,0.0,0.0,63,0.00,,,0.00,Wunderground v.1.15,2013-01-06 05:30:00,
2013-01-06 00:36:00,35.9,23.7,30.16,NNW,348,0.0,1.0,61,0.00,,,0.00,Wunderground v.1.15,2013-01-06 05:36:00,
2013-01-06 00:41:00,35.9,25.3,30.17,NNW,348,0.0,1.0,65,0.00,,,0.00,Wunderground v.1.15,2013-01-06 05:41:00,
2013-01-06 00:46:00,36.0,25.0,30.17,NNW,348,0.0,1.0,64,0.00,,,0.00,Wunderground v.1.15,2013-01-06 05:46:00,
2013-01-06 00:52:00,36.0,25.4,30.17,NNW,348,0.0,0.0,65,0.00,,,0.00,Wunderground v.1.15,2013-01-06 05:52:00,
2013-01-06 00:58:00,35.9,26.4,30.17,NNW,348,0.0,0.0,68,0.00,,,0.00,Wunderground v.1.15,2013-01-06 05:58:00,
2013-01-06 01:04:00,35.6,27.5,30.16,NNW,348,0.0,0.0,72,0.00,,,0.00,Wunderground v.1.15,2013-01-06 06:04:00,
2013-01-06 01:09:00,35.4,24.8,30.17,NNW,348,0.0,0.0,65,0.00,,,0.00,Wunderground v.1.15,2013-01-06 06:09:00,
2013-01-06 01:15:00,35.6,24.2,30.17,NNW,348,0.0,0.0,63,0.00,,,0.00,Wunderground v.1.15,2013-01-06 06:15:00,
2013-01-06 01:20:00,36.1,23.9,30.17,NNW,348,0.0,0.0,61,0.00,,,0.00,Wunderground v.1.15,2013-01-06 06:20:00,
2013-01-06 01:25:00,36.4,25.0,30.16,NNW,348,0.0,0.0,63,0.00,,,0.00,Wunderground v.1.15,2013-01-06 06:25:00,
2013-01-06 01:31:00,36.5,23.9,30.15,NNW,348,0.0,0.0,60,0.00,,,0.00,Wunderground v.1.15,2013-01-06 06:31:00,
2013-01-06 01:36:00,36.5,25.1,30.16,NNW,348,0.0,0.0,63,0.00,,,0.00,Wunderground v.1.15,2013-01-06 06:36:00,
2013-01-06 01:42:00,36.5,23.9,30.16,NNW,348,0.0,0.0,60,0.00,,,0.00,Wunderground v.1.15,2013-01-06 06:42:00,
2013-01-06 01:47:00,36.5,24.3,30.16,NNW,348,0.0,0.0,61,0.00,,,0.00,Wunderground v.1.15,2013-01-06 06:47:00,
2013-01-06 01:52:00,36.5,23.5,30.15,NNW,348,0.0,0.0,59,0.00,,,0.00,Wunderground v.1.15,2013-01-06 06:52:00,
2013-01-06 01:57:00,36.4,27.2,30.15,NNW,348,0.0,0.0,69,0.00,,,0.00,Wunderground v.1.15,2013-01-06 06:57:00,
2013-01-06 02:02:00,35.8,27.0,30.15,North,350,0.0,1.0,70,0.00,,,0.00,Wunderground v.1.15,2013-01-06 07:02:00,
2013-01-06 02:08:00,35.4,26.0,30.15,North,350,0.0,3.0,69,0.00,,,0.00,weatherlink.com 1.10,2013-01-06 07:08:00,
2013-01-06 02:13:00,35.3,25.8,30.14,North,350,0.0,0.0,68,0.00,,,0.00,Wunderground v.1.15,2013-01-06 07:13:00,
2013-01-06 02:19:00,35.2,25.0,30.15,North,350,0.0,0.0,66,0.00,,,0.00,Wunderground v.1.15,2013-01-06 07:19:00,
2013-01-06 02:24:00,35.3,25.1,30.15,North,350,0.0,0.0,66,0.00,,,0.00,Wunderground v.1.15,2013-01-06 07:24:00,
2013-01-06 02:29:00,35.3,25.1,30.14,North,350,0.0,0.0,66,0.00,,,0.00,Wunderground v.1.15,2013-01-06 07:29:00,
2013-01-06 02:35:00,35.2,26.4,30.15,North,350,0.0,0.0,70,0.00,,,0.00,Wunderground v.1.15,2013-01-06 07:35:00,
2013-01-06 02:40:00,34.8,27.0,30.15,North,350,1.0,2.0,73,0.00,,,0.00,weatherlink.com 1.10,2013-01-06 07:40:00,
2013-01-06 02:46:00,34.5,25.4,30.14,North,350,1.0,1.0,69,0.00,,,0.00,Wunderground v.1.15,2013-01-06 07:46:00,
2013-01-06 02:51:00,34.6,24.4,30.14,North,350,0.0,0.0,66,0.00,,,0.00,Wunderground v.1.15,2013-01-06 07:51:00,
2013-01-06 02:56:00,34.8,24.6,30.14,North,350,0.0,0.0,66,0.00,,,0.00,Wunderground v.1.15,2013-01-06 07:56:00,
2013-01-06 03:02:00,34.8,25.0,30.14,North,350,0.0,0.0,67,0.00,,,0.00,Wunderground v.1.15,2013-01-06 08:02:00,
2013-01-06 03:07:00,34.9,24.7,30.14,North,350,0.0,0.0,66,0.00,,,0.00,Wunderground v.1.15,2013-01-06 08:07:00,
2013-01-06 03:13:00,34.9,24.7,30.14,North,350,0.0,0.0,66,0.00,,,0.00,Wunderground v.1.15,2013-01-06 08:13:00,
2013-01-06 03:18:00,35.1,24.9,30.14,North,350,0.0,0.0,66,0.00,,,0.00,Wunderground v.1.15,2013-01-06 08:18:00,
2013-01-06 03:23:00,35.1,24.9,30.14,North,350,0.0,0.0,66,0.00,,,0.00,Wunderground v.1.15,2013-01-06 08:23:00,
2013-01-06 03:28:00,35.2,24.6,30.14,North,350,0.0,0.0,65,0.00,,,0.00,Wunderground v.1.15,2013-01-06 08:28:00,
2013-01-06 03:33:00,35.2,25.0,30.14,North,350,0.0,0.0,66,0.00,,,0.00,Wunderground v.1.15,2013-01-06 08:33:00,
2013-01-06 03:38:00,35.2,24.6,30.13,North,350,0.0,0.0,65,0.00,,,0.00,Wunderground v.1.15,2013-01-06 08:38:00,
2013-01-06 03:44:00,35.2,24.2,30.13,North,350,0.0,0.0,64,0.00,,,0.00,Wunderground v.1.15,2013-01-06 08:44:00,
2013-01-06 03:50:00,35.2,24.6,30.14,North,350,0.0,0.0,65,0.00,,,0.00,Wunderground v.1.15,2013-01-06 08:50:00,
2013-01-06 03:56:00,35.3,25.0,30.13,North,350,0.0,0.0,65,0.00,,,0.00,weatherlink.com 1.10,2013-01-06 08:56:00,
2013-01-06 04:01:00,35.3,24.7,30.13,North,350,0.0,0.0,65,0.00,,,0.00,Wunderground v.1.15,2013-01-06 09:01:00,
2013-01-06 04:06:00,35.3,25.1,30.13,North,350,0.0,0.0,66,0.00,,,0.00,Wunderground v.1.15,2013-01-06 09:06:00,
2013-01-06 04:11:00,35.4,25.2,30.13,North,350,0.0,0.0,66,0.00,,,0.00,Wunderground v.1.15,2013-01-06 09:11:00,
2013-01-06 04:16:00,35.3,25.4,30.13,North,350,0.0,0.0,67,0.00,,,0.00,Wunderground v.1.15,2013-01-06 09:16:00,
2013-01-06 04:22:00,35.3,24.7,30.13,North,350,0.0,0.0,65,0.00,,,0.00,Wunderground v.1.15,2013-01-06 09:22:00,
2013-01-06 04:27:00,35.2,25.3,30.12,North,350,0.0,1.0,67,0.00,,,0.00,Wunderground v.1.15,2013-01-06 09:27:00,
2013-01-06 04:32:00,35.0,24.8,30.12,North,350,0.0,0.0,66,0.00,,,0.00,Wunderground v.1.15,2013-01-06 09:32:00,
2013-01-06 04:38:00,34.9,23.9,30.12,North,350,0.0,0.0,64,0.00,,,0.00,Wunderground v.1.15,2013-01-06 09:38:00,
2013-01-06 04:43:00,35.0,24.0,30.12,North,350,0.0,0.0,64,0.00,,,0.00,Wunderground v.1.15,2013-01-06 09:43:00,
2013-01-06 04:48:00,35.2,24.2,30.11,North,350,0.0,1.0,64,0.00,,,0.00,Wunderground v.1.15,2013-01-06 09:48:00,
2013-01-06 04:53:00,35.3,24.0,30.11,North,350,1.0,2.0,63,0.00,,,0.00,Wunderground v.1.15,2013-01-06 09:53:00,
2013-01-06 04:59:00,35.4,24.0,30.11,North,350,1.0,2.0,63,0.00,,,0.00,Wunderground v.1.15,2013-01-06 09:59:00,
2013-01-06 05:04:00,35.3,24.3,30.11,North,350,0.0,2.0,64,0.00,,,0.00,Wunderground v.1.15,2013-01-06 10:04:00,
2013-01-06 05:10:00,35.1,25.2,30.11,North,350,0.0,0.0,67,0.00,,,0.00,Wunderground v.1.15,2013-01-06 10:10:00,
2013-01-06 05:16:00,34.5,25.4,30.11,North,350,0.0,1.0,69,0.00,,,0.00,Wunderground v.1.15,2013-01-06 10:16:00,
2013-01-06 05:21:00,33.5,24.8,30.10,NNW,344,1.0,1.0,70,0.00,,,0.00,Wunderground v.1.15,2013-01-06 10:21:00,
2013-01-06 05:26:00,33.0,24.3,30.11,NNW,344,1.0,1.0,70,0.00,,,0.00,Wunderground v.1.15,2013-01-06 10:26:00,
2013-01-06 05:31:00,33.0,25.0,30.11,NNW,344,0.0,0.0,72,0.00,,,0.00,Wunderground v.1.15,2013-01-06 10:31:00,
2013-01-06 05:36:00,33.0,24.6,30.11,NNW,344,0.0,1.0,71,0.00,,,0.00,Wunderground v.1.15,2013-01-06 10:36:00,
2013-01-06 05:41:00,32.9,24.9,30.11,NNW,344,0.0,1.0,72,0.00,,,0.00,Wunderground v.1.15,2013-01-06 10:41:00,
2013-01-06 05:46:00,33.1,24.4,30.11,NNW,344,1.0,1.0,70,0.00,,,0.00,Wunderground v.1.15,2013-01-06 10:46:00,
2013-01-06 05:51:00,33.4,24.3,30.11,NNW,344,1.0,1.0,69,0.00,,,0.00,Wunderground v.1.15,2013-01-06 10:51:00,
2013-01-06 05:57:00,33.7,24.0,30.11,NNW,344,0.0,2.0,68,0.00,,,0.00,weatherlink.com 1.10,2013-01-06 10:57:00,
2013-01-06 06:02:00,33.9,24.4,30.11,NNW,342,1.0,1.0,68,0.00,,,0.00,Wunderground v.1.15,2013-01-06 11:02:00,
2013-01-06 06:07:00,34.0,24.9,30.11,NNW,342,1.0,1.0,69,0.00,,,0.00,Wunderground v.1.15,2013-01-06 11:07:00,
2013-01-06 06:12:00,34.1,24.6,30.12,NNW,342,0.0,2.0,68,0.00,,,0.00,Wunderground v.1.15,2013-01-06 11:12:00,
2013-01-06 06:18:00,34.3,24.5,30.12,NNW,341,0.0,2.0,67,0.00,,,0.00,Wunderground v.1.15,2013-01-06 11:18:00,
2013-01-06 06:23:00,34.3,25.9,30.12,NNW,342,0.0,1.0,71,0.00,,,0.00,Wunderground v.1.15,2013-01-06 11:23:00,
2013-01-06 06:28:00,33.9,26.2,30.12,NNW,342,0.0,1.0,73,0.00,,,0.00,Wunderground v.1.15,2013-01-06 11:28:00,
2013-01-06 06:33:00,33.4,26.0,30.12,NNW,342,0.0,0.0,74,0.00,,,0.00,Wunderground v.1.15,2013-01-06 11:33:00,
2013-01-06 06:38:00,33.0,25.6,30.13,NNW,342,0.0,0.0,74,0.00,,,0.00,Wunderground v.1.15,2013-01-06 11:38:00,
2013-01-06 06:44:00,32.9,25.5,30.13,NNW,342,0.0,0.0,74,0.00,,,0.00,Wunderground v.1.15,2013-01-06 11:44:00,
2013-01-06 06:49:00,33.1,25.1,30.13,NNW,342,0.0,0.0,72,0.00,,,0.00,Wunderground v.1.15,2013-01-06 11:49:00,
2013-01-06 06:54:00,33.2,26.1,30.13,NNW,342,0.0,0.0,75,0.00,,,0.00,Wunderground v.1.15,2013-01-06 11:54:00,
2013-01-06 06:59:00,33.2,25.8,30.12,NNW,342,0.0,1.0,74,0.00,,,0.00,Wunderground v.1.15,2013-01-06 11:59:00,
2013-01-06 07:04:00,33.7,24.6,30.12,NNW,342,1.0,1.0,69,0.00,,,0.00,Wunderground v.1.15,2013-01-06 12:04:00,
2013-01-06 07:10:00,34.3,24.5,30.12,NNW,342,0.0,0.0,67,0.00,,,0.00,Wunderground v.1.15,2013-01-06 12:10:00,
2013-01-06 07:15:00,34.7,24.5,30.12,NNW,342,0.0,0.0,66,0.00,,,0.00,Wunderground v.1.15,2013-01-06 12:15:00,
2013-01-06 07:20:00,35.1,25.6,30.13,NNW,342,0.0,0.0,68,0.00,,,0.00,Wunderground v.1.15,2013-01-06 12:20:00,
2013-01-06 07:25:00,35.2,25.7,30.12,NNW,342,0.0,0.0,68,0.00,,,0.00,Wunderground v.1.15,2013-01-06 12:25:00,
2013-01-06 07:31:00,34.8,27.0,30.13,NNW,342,0.0,0.0,73,0.00,,,0.00,Wunderground v.1.15,2013-01-06 12:31:00,
2013-01-06 07:36:00,34.4,26.6,30.13,NNW,342,0.0,0.0,73,0.00,,,0.00,Wunderground v.1.15,2013-01-06 12:36:00,
2013-01-06 07:42:00,34.0,27.5,30.12,NNW,342,0.0,0.0,77,0.00,,,0.00,Wunderground v.1.15,2013-01-06 12:42:00,
2013-01-06 07:47:00,33.7,26.9,30.13,NNW,342,0.0,0.0,76,0.00,,,0.00,Wunderground v.1.15,2013-01-06 12:47:00,
2013-01-06 07:53:00,33.5,26.4,30.13,NNW,342,0.0,0.0,75,0.00,,,0.00,Wunderground v.1.15,2013-01-06 12:53:00,
2013-01-06 07:58:00,33.5,26.7,30.13,NNW,342,0.0,1.0,76,0.00,,,0.00,Wunderground v.1.15,2013-01-06 12:58:00,
2013-01-06 08:04:00,33.7,26.6,30.13,NNW,342,0.0,1.0,75,0.00,,,0.00,Wunderground v.1.15,2013-01-06 13:04:00,
2013-01-06 08:09:00,33.9,25.1,30.13,NNW,342,0.0,1.0,70,0.00,,,0.00,Wunderground v.1.15,2013-01-06 13:09:00,
2013-01-06 08:14:00,34.6,25.1,30.13,NNW,342,0.0,0.0,68,0.00,,,0.00,Wunderground v.1.15,2013-01-06 13:14:00,
2013-01-06 08:19:00,34.9,27.8,30.13,NNW,342,0.0,0.0,75,0.00,,,0.00,Wunderground v.1.15,2013-01-06 13:19:00,
2013-01-06 08:25:00,34.7,27.6,30.13,NNW,342,0.0,0.0,75,0.00,,,0.00,Wunderground v.1.15,2013-01-06 13:25:00,
2013-01-06 08:30:00,34.5,27.4,30.13,NNW,342,0.0,0.0,75,0.00,,,0.00,Wunderground v.1.15,2013-01-06 13:30:00,
2013-01-06 08:35:00,34.4,27.6,30.13,NNW,342,0.0,0.0,76,0.00,,,0.00,Wunderground v.1.15,2013-01-06 13:35:00,
2013-01-06 08:41:00,34.3,27.5,30.13,NNW,342,0.0,0.0,76,0.00,,,0.00,Wunderground v.1.15,2013-01-06 13:41:00,
2013-01-06 08:46:00,34.3,27.2,30.13,NNW,342,0.0,0.0,75,0.00,,,0.00,Wunderground v.1.15,2013-01-06 13:46:00,
2013-01-06 08:51:00,34.4,26.6,30.13,NNW,342,0.0,0.0,73,0.00,,,0.00,Wunderground v.1.15,2013-01-06 13:51:00,
2013-01-06 08:56:00,34.7,27.3,30.13,NNW,342,0.0,0.0,74,0.00,,,0.00,Wunderground v.1.15,2013-01-06 13:56:00,
2013-01-06 09:02:00,35.2,27.4,30.13,NNW,342,0.0,0.0,73,0.00,,,0.00,Wunderground v.1.15,2013-01-06 14:02:00,
2013-01-06 09:08:00,35.7,27.2,30.13,NNW,342,0.0,0.0,71,0.00,,,0.00,Wunderground v.1.15,2013-01-06 14:08:00,
2013-01-06 09:13:00,36.1,26.9,30.13,NNW,342,0.0,0.0,69,0.00,,,0.00,Wunderground v.1.15,2013-01-06 14:13:00,
2013-01-06 09:18:00,36.5,26.2,30.13,NNW,341,0.0,1.0,66,0.00,,,0.00,Wunderground v.1.15,2013-01-06 14:18:00,
2013-01-06 09:23:00,37.1,26.0,30.13,NW,321,0.0,1.0,64,0.00,,,0.00,Wunderground v.1.15,2013-01-06 14:23:00,
2013-01-06 09:29:00,37.8,25.9,30.13,NW,321,1.0,2.0,62,0.00,,,0.00,Wunderground v.1.15,2013-01-06 14:29:00,
2013-01-06 09:35:00,38.4,26.1,30.13,NW,320,1.0,1.0,61,0.00,,,0.00,Wunderground v.1.15,2013-01-06 14:35:00,
2013-01-06 09:40:00,38.8,26.5,30.14,NW,316,0.0,2.0,61,0.00,,,0.00,Wunderground v.1.15,2013-01-06 14:40:00,
2013-01-06 09:45:00,39.2,26.9,30.14,SW,230,1.0,2.0,61,0.00,,,0.00,Wunderground v.1.15,2013-01-06 14:45:00,
2013-01-06 09:50:00,39.4,27.1,30.14,SW,230,1.0,1.0,61,0.00,,,0.00,Wunderground v.1.15,2013-01-06 14:50:00,
2013-01-06 09:55:00,39.3,27.4,30.14,SSW,211,1.0,2.0,62,0.00,,,0.00,Wunderground v.1.15,2013-01-06 14:55:00,
2013-01-06 10:00:00,39.0,27.8,30.14,SSW,211,1.0,1.0,64,0.00,,,0.00,Wunderground v.1.15,2013-01-06 15:00:00,
2013-01-06 10:06:00,38.8,28.0,30.14,SSW,194,1.0,2.0,65,0.00,,,0.00,Wunderground v.1.15,2013-01-06 15:06:00,
2013-01-06 10:11:00,38.8,28.4,30.14,SSW,194,1.0,2.0,66,0.00,,,0.00,Wunderground v.1.15,2013-01-06 15:11:00,
2013-01-06 10:16:00,38.8,28.0,30.14,SW,223,1.0,2.0,65,0.00,,,0.00,Wunderground v.1.15,2013-01-06 15:16:00,
2013-01-06 10:21:00,38.9,28.1,30.13,SSW,213,1.0,1.0,65,0.00,,,0.00,Wunderground v.1.15,2013-01-06 15:21:00,
2013-01-06 10:27:00,39.0,27.8,30.13,SSW,213,1.0,3.0,64,0.00,,,0.00,Wunderground v.1.15,2013-01-06 15:27:00,
2013-01-06 10:33:00,39.2,28.0,30.13,SW,218,1.0,1.0,64,0.00,,,0.00,Wunderground v.1.15,2013-01-06 15:33:00,
2013-01-06 10:38:00,39.3,28.1,30.13,SW,236,1.0,2.0,64,0.00,,,0.00,Wunderground v.1.15,2013-01-06 15:38:00,
2013-01-06 10:43:00,39.5,28.7,30.13,SW,236,1.0,2.0,65,0.00,,,0.00,Wunderground v.1.15,2013-01-06 15:43:00,
2013-01-06 10:48:00,39.6,28.8,30.13,SW,223,1.0,2.0,65,0.00,,,0.00,Wunderground v.1.15,2013-01-06 15:48:00,
2013-01-06 10:54:00,39.7,28.9,30.13,SW,223,1.0,1.0,65,0.00,,,0.00,Wunderground v.1.15,2013-01-06 15:54:00,
2013-01-06 10:59:00,39.9,29.1,30.12,SW,223,1.0,1.0,65,0.00,,,0.00,Wunderground v.1.15,2013-01-06 15:59:00,
2013-01-06 11:04:00,40.1,29.3,30.13,SW,229,1.0,3.0,65,0.00,,,0.00,Wunderground v.1.15,2013-01-06 16:04:00,
2013-01-06 11:09:00,40.2,29.4,30.12,WSW,240,1.0,3.0,65,0.00,,,0.00,Wunderground v.1.15,2013-01-06 16:09:00,
2013-01-06 11:14:00,40.2,29.4,30.12,West,265,1.0,4.0,65,0.00,,,0.00,Wunderground v.1.15,2013-01-06 16:14:00,
2013-01-06 11:20:00,40.3,29.5,30.11,WSW,242,1.0,2.0,65,0.00,,,0.00,Wunderground v.1.15,2013-01-06 16:20:00,
2013-01-06 11:25:00,40.4,29.6,30.11,SW,222,1.0,3.0,65,0.00,,,0.00,Wunderground v.1.15,2013-01-06 16:25:00,
2013-01-06 11:30:00,40.4,29.6,30.11,WSW,249,1.0,1.0,65,0.00,,,0.00,Wunderground v.1.15,2013-01-06 16:30:00,
2013-01-06 11:35:00,40.6,29.7,30.10,WSW,249,1.0,2.0,65,0.00,,,0.00,Wunderground v.1.15,2013-01-06 16:35:00,
2013-01-06 11:40:00,40.9,29.7,30.10,West,275,0.0,2.0,64,0.00,,,0.00,Wunderground v.1.15,2013-01-06 16:40:00,
2013-01-06 11:46:00,41.3,29.6,30.09,NNW,347,1.0,2.0,63,0.00,,,0.00,Wunderground v.1.15,2013-01-06 16:46:00,
2013-01-06 11:51:00,41.6,29.9,30.09,West,274,1.0,1.0,63,0.00,,,0.00,Wunderground v.1.15,2013-01-06 16:51:00,
2013-01-06 11:56:00,41.9,30.6,30.08,SSW,194,1.0,3.0,64,0.00,,,0.00,Wunderground v.1.15,2013-01-06 16:56:00,
2013-01-06 12:01:00,42.2,30.5,30.08,SSE,158,1.0,1.0,63,0.00,,,0.00,Wunderground v.1.15,2013-01-06 17:01:00,
2013-01-06 12:06:00,42.4,30.3,30.08,South,171,1.0,2.0,62,0.00,,,0.00,Wunderground v.1.15,2013-01-06 17:06:00,
2013-01-06 12:12:00,42.5,30.0,30.08,SSW,211,1.0,1.0,61,0.00,,,0.00,Wunderground v.1.15,2013-01-06 17:12:00,
2013-01-06 12:17:00,42.6,30.1,30.07,SSW,194,1.0,1.0,61,0.00,,,0.00,Wunderground v.1.15,2013-01-06 17:17:00,
2013-01-06 12:22:00,42.7,30.6,30.07,SSW,197,1.0,1.0,62,0.00,,,0.00,Wunderground v.1.15,2013-01-06 17:22:00,
2013-01-06 12:27:00,42.8,29.9,30.06,SSW,200,1.0,3.0,60,0.00,,,0.00,Wunderground v.1.15,2013-01-06 17:27:00,
2013-01-06 12:32:00,42.8,30.7,30.06,South,181,1.0,3.0,62,0.00,,,0.00,Wunderground v.1.15,2013-01-06 17:32:00,
2013-01-06 12:38:00,42.9,30.8,30.06,South,180,1.0,3.0,62,0.00,,,0.00,Wunderground v.1.15,2013-01-06 17:38:00,
2013-01-06 12:43:00,43.0,31.3,30.06,South,180,1.0,2.0,63,0.00,,,0.00,Wunderground v.1.15,2013-01-06 17:43:00,
2013-01-06 12:48:00,43.2,30.6,30.06,South,180,1.0,3.0,61,0.00,,,0.00,Wunderground v.1.15,2013-01-06 17:48:00,
2013-01-06 12:53:00,43.4,29.6,30.05,SSW,192,1.0,1.0,58,0.00,,,0.00,Wunderground v.1.15,2013-01-06 17:53:00,
2013-01-06 12:58:00,43.6,29.8,30.05,South,182,1.0,1.0,58,0.00,,,0.00,Wunderground v.1.15,2013-01-06 17:58:00,
2013-01-06 13:04:00,43.8,29.1,30.05,SW,215,1.0,2.0,56,0.00,,,0.00,Wunderground v.1.15,2013-01-06 18:04:00,
2013-01-06 13:10:00,43.8,29.1,30.04,SW,229,1.0,1.0,56,0.00,,,0.00,Wunderground v.1.15,2013-01-06 18:10:00,
2013-01-06 13:15:00,43.8,29.5,30.04,South,186,1.0,1.0,57,0.00,,,0.00,Wunderground v.1.15,2013-01-06 18:15:00,
2013-01-06 13:20:00,43.7,29.5,30.04,South,186,1.0,1.0,57,0.00,,,0.00,Wunderground v.1.15,2013-01-06 18:20:00,
2013-01-06 13:26:00,43.9,29.6,30.04,South,186,1.0,1.0,57,0.00,,,0.00,Wunderground v.1.15,2013-01-06 18:26:00,
2013-01-06 13:31:00,44.1,28.9,30.03,South,180,1.0,3.0,55,0.00,,,0.00,Wunderground v.1.15,2013-01-06 18:31:00,
2013-01-06 13:36:00,43.9,29.2,30.03,SE,139,2.0,3.0,56,0.00,,,0.00,Wunderground v.1.15,2013-01-06 18:36:00,
2013-01-06 13:41:00,43.8,29.5,30.04,SW,229,2.0,2.0,57,0.00,,,0.00,Wunderground v.1.15,2013-01-06 18:41:00,
2013-01-06 13:46:00,43.7,29.5,30.04,SW,225,1.0,2.0,57,0.00,,,0.00,Wunderground v.1.15,2013-01-06 18:46:00,
2013-01-06 13:52:00,43.7,29.0,30.03,SW,225,1.0,2.0,56,0.00,,,0.00,Wunderground v.1.15,2013-01-06 18:52:00,
2013-01-06 13:57:00,43.8,29.1,30.03,SW,225,0.0,2.0,56,0.00,,,0.00,Wunderground v.1.15,2013-01-06 18:57:00,
2013-01-06 14:04:00,43.8,29.1,30.03,West,262,1.0,2.0,56,0.00,,,0.00,Wunderground v.1.15,2013-01-06 19:04:00,
2013-01-06 14:10:00,43.8,28.7,30.03,South,180,1.0,1.0,55,0.00,,,0.00,Wunderground v.1.15,2013-01-06 19:10:00,
2013-01-06 14:15:00,43.8,29.5,30.03,South,180,1.0,2.0,57,0.00,,,0.00,Wunderground v.1.15,2013-01-06 19:15:00,
2013-01-06 14:21:00,43.7,29.0,30.03,West,263,1.0,1.0,56,0.00,,,0.00,Wunderground v.1.15,2013-01-06 19:21:00,
2013-01-06 14:26:00,43.6,28.9,30.03,West,259,1.0,1.0,56,0.00,,,0.00,Wunderground v.1.15,2013-01-06 19:26:00,
2013-01-06 14:32:00,43.5,28.8,30.03,SSW,194,1.0,1.0,56,0.00,,,0.00,Wunderground v.1.15,2013-01-06 19:32:00,
2013-01-06 14:37:00,43.4,28.7,30.03,ESE,121,0.0,1.0,56,0.00,,,0.00,Wunderground v.1.15,2013-01-06 19:37:00,
2013-01-06 14:48:00,43.2,29.0,30.03,WSW,240,1.0,4.0,57,0.00,,,0.00,Wunderground v.1.15,2013-01-06 19:48:00,
2013-01-06 14:54:00,43.1,28.9,30.03,WSW,250,1.0,2.0,57,0.00,,,0.00,Wunderground v.1.15,2013-01-06 19:54:00,
2013-01-06 14:59:00,43.0,29.2,30.03,SW,234,1.0,2.0,58,0.00,,,0.00,Wunderground v.1.15,2013-01-06 19:59:00,
2013-01-06 15:04:00,42.9,29.1,30.03,WSW,247,1.0,1.0,58,0.00,,,0.00,Wunderground v.1.15,2013-01-06 20:04:00,
2013-01-06 15:09:00,42.7,29.4,30.03,SW,234,1.0,2.0,59,0.00,,,0.00,Wunderground v.1.15,2013-01-06 20:09:00,
2013-01-06 15:12:00,42.7,29.4,30.03,WSW,245,1.0,1.0,59,0.00,,,0.00,Wunderground v.1.15,2013-01-06 20:12:00,
2013-01-06 15:13:00,42.7,29.4,30.03,WSW,245,1.0,1.0,59,0.00,,,0.00,Wunderground v.1.15,2013-01-06 20:13:00,
2013-01-06 15:18:00,42.6,29.7,30.03,WSW,245,0.0,1.0,60,0.00,,,0.00,Wunderground v.1.15,2013-01-06 20:18:00,
2013-01-06 15:23:00,42.5,29.6,30.03,WSW,245,1.0,1.0,60,0.00,,,0.00,Wunderground v.1.15,2013-01-06 20:23:00,
2013-01-06 15:28:00,42.4,29.5,30.03,WSW,245,0.0,2.0,60,0.00,,,0.00,Wunderground v.1.15,2013-01-06 20:28:00,
2013-01-06 15:33:00,42.4,29.5,30.03,WSW,245,0.0,1.0,60,0.00,,,0.00,Wunderground v.1.15,2013-01-06 20:33:00,
2013-01-06 15:39:00,42.4,29.9,30.03,WSW,245,0.0,1.0,61,0.00,,,0.00,Wunderground v.1.15,2013-01-06 20:39:00,
2013-01-06 15:44:00,42.4,29.5,30.03,WSW,245,0.0,1.0,60,0.00,,,0.00,Wunderground v.1.15,2013-01-06 20:44:00,
2013-01-06 15:50:00,42.4,30.0,30.03,WSW,245,0.0,1.0,61,0.00,,,0.00,weatherlink.com 1.10,2013-01-06 20:50:00,
2013-01-06 15:56:00,42.3,29.4,30.03,WSW,245,0.0,0.0,60,0.00,,,0.00,Wunderground v.1.15,2013-01-06 20:56:00,
2013-01-06 16:02:00,42.3,29.8,30.03,WNW,290,0.0,0.0,61,0.00,,,0.00,Wunderground v.1.15,2013-01-06 21:02:00,
2013-01-06 16:04:00,42.2,29.3,30.03,WNW,300,0.0,1.0,60,0.00,,,0.00,Wunderground v.1.15,2013-01-06 21:04:00,
2013-01-06 16:09:00,42.2,29.3,30.03,WNW,300,0.0,1.0,60,0.00,,,0.00,Wunderground v.1.15,2013-01-06 21:09:00,
2013-01-06 16:15:00,42.0,29.5,30.03,WNW,300,0.0,0.0,61,0.00,,,0.00,Wunderground v.1.15,2013-01-06 21:15:00,
2013-01-06 16:20:00,41.9,29.4,30.03,WNW,300,0.0,0.0,61,0.00,,,0.00,Wunderground v.1.15,2013-01-06 21:20:00,
2013-01-06 16:25:00,41.8,29.7,30.04,WNW,300,0.0,0.0,62,0.00,,,0.00,Wunderground v.1.15,2013-01-06 21:25:00,
2013-01-06 16:30:00,41.6,29.5,30.03,WNW,300,0.0,0.0,62,0.00,,,0.00,Wunderground v.1.15,2013-01-06 21:30:00,
2013-01-06 16:36:00,41.4,29.3,30.04,WNW,300,0.0,0.0,62,0.00,,,0.00,Wunderground v.1.15,2013-01-06 21:36:00,
2013-01-06 16:41:00,41.2,29.5,30.04,WNW,300,0.0,0.0,63,0.00,,,0.00,Wunderground v.1.15,2013-01-06 21:41:00,
2013-01-06 16:46:00,41.2,29.2,30.04,NW,323,0.0,0.0,62,0.00,,,0.00,Wunderground v.1.15,2013-01-06 21:46:00,
2013-01-06 16:52:00,41.1,29.5,30.04,NW,323,0.0,0.0,63,0.00,,,0.00,Wunderground v.1.15,2013-01-06 21:52:00,
2013-01-06 16:57:00,41.2,29.5,30.04,West,270,0.0,1.0,63,0.00,,,0.00,Wunderground v.1.15,2013-01-06 21:57:00,
2013-01-06 17:04:00,41.1,29.5,30.04,West,270,0.0,0.0,63,0.00,,,0.00,Wunderground v.1.15,2013-01-06 22:04:00,
2013-01-06 17:10:00,41.0,29.4,30.04,West,270,0.0,0.0,63,0.00,,,0.00,Wunderground v.1.15,2013-01-06 22:10:00,
2013-01-06 17:15:00,41.0,29.0,30.04,West,270,0.0,0.0,62,0.00,,,0.00,Wunderground v.1.15,2013-01-06 22:15:00,
2013-01-06 17:20:00,40.9,28.9,30.05,West,270,0.0,0.0,62,0.00,,,0.00,Wunderground v.1.15,2013-01-06 22:20:00,
2013-01-06 17:26:00,41.0,29.4,30.05,West,267,0.0,0.0,63,0.00,,,0.00,Wunderground v.1.15,2013-01-06 22:26:00,
2013-01-06 17:31:00,41.0,29.4,30.05,West,267,0.0,0.0,63,0.00,,,0.00,Wunderground v.1.15,2013-01-06 22:31:00,
2013-01-06 17:36:00,40.8,29.2,30.05,West,267,0.0,1.0,63,0.00,,,0.00,Wunderground v.1.15,2013-01-06 22:36:00,
2013-01-06 17:41:00,40.8,29.2,30.06,West,267,0.0,0.0,63,0.00,,,0.00,Wunderground v.1.15,2013-01-06 22:41:00,
2013-01-06 17:47:00,40.6,29.4,30.06,West,267,0.0,1.0,64,0.00,,,0.00,Wunderground v.1.15,2013-01-06 22:47:00,
2013-01-06 17:52:00,40.6,29.4,30.06,West,267,0.0,1.0,64,0.00,,,0.00,Wunderground v.1.15,2013-01-06 22:52:00,
2013-01-06 17:58:00,40.6,29.4,30.07,West,267,0.0,1.0,64,0.00,,,0.00,Wunderground v.1.15,2013-01-06 22:58:00,
2013-01-06 18:04:00,40.5,28.9,30.06,West,267,0.0,0.0,63,0.00,,,0.00,Wunderground v.1.15,2013-01-06 23:04:00,
2013-01-06 18:10:00,40.7,29.1,30.07,NW,309,0.0,0.0,63,0.00,,,0.00,Wunderground v.1.15,2013-01-06 23:10:00,
2013-01-06 18:16:00,40.8,28.8,30.07,North,360,0.0,1.0,62,0.00,,,0.00,Wunderground v.1.15,2013-01-06 23:16:00,
2013-01-06 18:21:00,41.1,29.1,30.07,NW,313,0.0,1.0,62,0.00,,,0.00,Wunderground v.1.15,2013-01-06 23:21:00,
2013-01-06 18:26:00,41.2,28.8,30.07,SSW,194,1.0,1.0,61,0.00,,,0.00,Wunderground v.1.15,2013-01-06 23:26:00,
2013-01-06 18:32:00,41.4,28.9,30.08,NNE,26,1.0,1.0,61,0.00,,,0.00,Wunderground v.1.15,2013-01-06 23:32:00,
2013-01-06 18:37:00,41.4,28.9,30.08,WSW,258,1.0,2.0,61,0.00,,,0.00,Wunderground v.1.15,2013-01-06 23:37:00,
2013-01-06 18:42:00,41.5,29.0,30.08,West,262,1.0,1.0,61,0.00,,,0.00,Wunderground v.1.15,2013-01-06 23:42:00,
2013-01-06 18:47:00,41.5,28.6,30.08,NW,324,1.0,2.0,60,0.00,,,0.00,Wunderground v.1.15,2013-01-06 23:47:00,
2013-01-06 18:52:00,41.7,28.4,30.08,ESE,111,1.0,3.0,59,0.00,,,0.00,Wunderground v.1.15,2013-01-06 23:52:00,
2013-01-06 18:58:00,41.9,28.6,30.08,WNW,284,2.0,3.0,59,0.00,,,0.00,Wunderground v.1.15,2013-01-06 23:58:00,
2013-01-06 19:04:00,41.9,28.6,30.09,North,5,1.0,1.0,59,0.00,,,0.00,Wunderground v.1.15,2013-01-07 00:04:00,
2013-01-06 19:10:00,41.8,28.5,30.09,WNW,298,1.0,1.0,59,0.00,,,0.00,Wunderground v.1.15,2013-01-07 00:10:00,
2013-01-06 19:15:00,41.7,28.8,30.09,West,265,0.0,1.0,60,0.00,,,0.00,Wunderground v.1.15,2013-01-07 00:15:00,
2013-01-06 19:20:00,41.6,28.7,30.09,NNE,32,1.0,1.0,60,0.00,,,0.00,Wunderground v.1.15,2013-01-07 00:20:00,
2013-01-06 19:25:00,41.6,28.3,30.09,SW,236,1.0,2.0,59,0.00,,,0.00,Wunderground v.1.15,2013-01-07 00:25:00,
2013-01-06 19:31:00,41.9,28.6,30.09,SW,229,2.0,2.0,59,0.00,,,0.00,Wunderground v.1.15,2013-01-07 00:31:00,
2013-01-06 19:36:00,41.9,28.0,30.09,WSW,241,0.0,6.0,59,0.00,,,0.00,weatherlink.com 1.10,2013-01-07 00:36:00,
2013-01-06 19:41:00,41.9,28.6,30.09,SW,229,2.0,2.0,59,0.00,,,0.00,Wunderground v.1.15,2013-01-07 00:41:00,
2013-01-06 19:47:00,41.7,28.4,30.09,ESE,102,1.0,2.0,59,0.00,,,0.00,Wunderground v.1.15,2013-01-07 00:47:00,
2013-01-06 19:55:00,41.5,28.6,30.09,SW,233,1.0,4.0,60,0.00,,,0.00,Wunderground v.1.15,2013-01-07 00:55:00,
2013-01-06 20:00:00,41.5,28.2,30.09,NW,304,1.0,2.0,59,0.00,,,0.00,Wunderground v.1.15,2013-01-07 01:00:00,
2013-01-06 20:06:00,41.4,28.5,30.09,SE,128,1.0,2.0,60,0.00,,,0.00,Wunderground v.1.15,2013-01-07 01:06:00,
2013-01-06 20:11:00,41.4,28.5,30.09,SSW,192,1.0,1.0,60,0.00,,,0.00,Wunderground v.1.15,2013-01-07 01:11:00,
2013-01-06 20:16:00,41.2,27.9,30.09,SSW,192,0.0,1.0,59,0.00,,,0.00,Wunderground v.1.15,2013-01-07 01:16:00,
2013-01-06 20:22:00,41.0,28.0,30.09,SSW,192,0.0,2.0,61,0.00,,,0.00,weatherlink.com 1.10,2013-01-07 01:22:00,
2013-01-06 20:27:00,40.8,28.0,30.09,SSW,192,0.0,1.0,60,0.00,,,0.00,Wunderground v.1.15,2013-01-07 01:27:00,
2013-01-06 20:33:00,40.7,27.9,30.09,SSW,192,0.0,0.0,60,0.00,,,0.00,Wunderground v.1.15,2013-01-07 01:33:00,
2013-01-06 20:38:00,40.6,27.8,30.09,SSW,192,0.0,1.0,60,0.00,,,0.00,Wunderground v.1.15,2013-01-07 01:38:00,
2013-01-06 20:43:00,40.6,28.2,30.10,SSW,192,1.0,1.0,61,0.00,,,0.00,Wunderground v.1.15,2013-01-07 01:43:00,
2013-01-06 20:48:00,40.6,28.2,30.10,SSW,192,0.0,1.0,61,0.00,,,0.00,Wunderground v.1.15,2013-01-07 01:48:00,
2013-01-06 20:54:00,40.4,27.6,30.09,SSW,205,0.0,3.0,60,0.00,,,0.00,Wunderground v.1.15,2013-01-07 01:54:00,
2013-01-06 20:59:00,40.4,28.0,30.10,SSW,204,0.0,3.0,61,0.00,,,0.00,Wunderground v.1.15,2013-01-07 01:59:00,
2013-01-06 21:04:00,40.2,28.2,30.10,SSW,204,0.0,0.0,62,0.00,,,0.00,Wunderground v.1.15,2013-01-07 02:04:00,
2013-01-06 21:10:00,39.9,28.3,30.10,SSW,204,0.0,0.0,63,0.00,,,0.00,Wunderground v.1.15,2013-01-07 02:10:00,
2013-01-06 21:15:00,39.8,27.8,30.10,SSW,204,0.0,0.0,62,0.00,,,0.00,Wunderground v.1.15,2013-01-07 02:15:00,
2013-01-06 21:20:00,39.6,27.6,30.10,SSW,204,0.0,0.0,62,0.00,,,0.00,Wunderground v.1.15,2013-01-07 02:20:00,
2013-01-06 21:26:00,39.5,27.9,30.10,ENE,71,0.0,2.0,63,0.00,,,0.00,Wunderground v.1.15,2013-01-07 02:26:00,
2013-01-06 21:31:00,39.5,28.3,30.10,SSW,200,0.0,0.0,64,0.00,,,0.00,Wunderground v.1.15,2013-01-07 02:31:00,
2013-01-06 21:37:00,39.6,28.8,30.10,SSW,209,1.0,2.0,65,0.00,,,0.00,Wunderground v.1.15,2013-01-07 02:37:00,
2013-01-06 21:42:00,39.8,28.6,30.10,West,276,1.0,2.0,64,0.00,,,0.00,Wunderground v.1.15,2013-01-07 02:42:00,
2013-01-06 21:47:00,39.9,29.1,30.10,WNW,300,1.0,2.0,65,0.00,,,0.00,Wunderground v.1.15,2013-01-07 02:47:00,
2013-01-06 21:52:00,40.0,29.2,30.10,NNW,331,0.0,1.0,65,0.00,,,0.00,Wunderground v.1.15,2013-01-07 02:52:00,
2013-01-06 21:57:00,40.0,29.2,30.10,NW,319,1.0,1.0,65,0.00,,,0.00,Wunderground v.1.15,2013-01-07 02:57:00,
2013-01-06 22:02:00,39.9,29.5,30.11,NW,318,1.0,1.0,66,0.00,,,0.00,Wunderground v.1.15,2013-01-07 03:02:00,
2013-01-06 22:07:00,39.8,29.4,30.11,SSW,199,1.0,4.0,66,0.00,,,0.00,Wunderground v.1.15,2013-01-07 03:07:00,
2013-01-06 22:12:00,39.7,29.3,30.11,West,278,1.0,1.0,66,0.00,,,0.00,Wunderground v.1.15,2013-01-07 03:12:00,
2013-01-06 22:17:00,39.6,28.8,30.11,SE,127,0.0,1.0,65,0.00,,,0.00,Wunderground v.1.15,2013-01-07 03:17:00,
2013-01-06 22:23:00,39.6,29.2,30.11,SSE,160,0.0,0.0,66,0.00,,,0.00,Wunderground v.1.15,2013-01-07 03:23:00,
2013-01-06 22:28:00,39.5,29.4,30.11,North,5,0.0,3.0,67,0.00,,,0.00,Wunderground v.1.15,2013-01-07 03:28:00,
2013-01-06 22:34:00,39.4,29.3,30.11,North,355,1.0,1.0,67,0.00,,,0.00,Wunderground v.1.15,2013-01-07 03:34:00,
2013-01-06 22:39:00,39.4,29.3,30.12,North,355,0.0,1.0,67,0.00,,,0.00,Wunderground v.1.15,2013-01-07 03:39:00,
2013-01-06 22:44:00,39.4,29.7,30.12,North,355,0.0,1.0,68,0.00,,,0.00,Wunderground v.1.15,2013-01-07 03:44:00,
2013-01-06 22:49:00,39.3,29.6,30.12,North,355,0.0,1.0,68,0.00,,,0.00,Wunderground v.1.15,2013-01-07 03:49:00,
2013-01-06 22:55:00,39.3,29.6,30.13,North,355,0.0,0.0,68,0.00,,,0.00,Wunderground v.1.15,2013-01-07 03:55:00,
2013-01-06 23:00:00,39.4,29.7,30.13,North,5,0.0,0.0,68,0.00,,,0.00,Wunderground v.1.15,2013-01-07 04:00:00,
2013-01-06 23:06:00,39.6,30.3,30.13,North,5,1.0,1.0,69,0.00,,,0.00,Wunderground v.1.15,2013-01-07 04:06:00,
2013-01-06 23:11:00,39.6,29.9,30.14,WSW,252,0.0,2.0,68,0.00,,,0.00,Wunderground v.1.15,2013-01-07 04:11:00,
2013-01-06 23:16:00,39.9,30.5,30.14,NW,325,1.0,2.0,69,0.00,,,0.00,Wunderground v.1.15,2013-01-07 04:16:00,
2013-01-06 23:21:00,40.0,30.6,30.14,NW,306,1.0,1.0,69,0.00,,,0.00,Wunderground v.1.15,2013-01-07 04:21:00,
2013-01-06 23:27:00,40.0,31.0,30.14,NW,306,0.0,2.0,69,0.00,,,0.00,weatherlink.com 1.10,2013-01-07 04:27:00,
2013-01-06 23:32:00,40.1,30.7,30.14,North,355,1.0,2.0,69,0.00,,,0.00,Wunderground v.1.15,2013-01-07 04:32:00,
2013-01-06 23:38:00,40.2,30.8,30.15,NE,42,1.0,2.0,69,0.00,,,0.00,Wunderground v.1.15,2013-01-07 04:38:00,
2013-01-06 23:43:00,40.3,30.9,30.15,North,360,2.0,4.0,69,0.00,,,0.00,Wunderground v.1.15,2013-01-07 04:43:00,
2013-01-06 23:49:00,40.3,30.9,30.16,East,80,2.0,4.0,69,0.00,,,0.00,Wunderground v.1.15,2013-01-07 04:49:00,
2013-01-06 23:54:00,40.3,30.9,30.16,NE,40,2.0,2.0,69,0.00,,,0.00,Wunderground v.1.15,2013-01-07 04:54:00,